[[{"header":{"parameterUnit":"m.s-1","parameterCategory":2,"la1":30.2991,"la2":30.254,"lo1":-89.0895,"lo2":-89.0444,"dy":0.0017,"dx":0.0017,"nx":28,"ny":28,"refTime":"2024-08-14T21:00:00:Z","depth":"0","parameterNumber":2,"parameterNumberName":"U-component_of_CURRENTS"},"data":[0,0,0,0,0,0,0,0,0,0,0,0,0,0,0,0,0,0,0,0,0,0,0,0,0,0,0,0,0,0,0,0,0,0,0,0,0,0,0,0,0,0,0,0,0,0,0,0,0,0,0,0,0,0,0,0,0,0,0.3684,0.3684,0,0.3696,0.3695,0.3695,0.3699,0.37,0.37,0.37,0.3698,0.3698,0.3698,0,0,0,0,0,0,0,0,0,0,0,0,0,0.3613,0.3614,0.3684,0.3684,0.3685,0.3696,0.3695,0.3695,0.3699,0.37,0.37,0.3701,0.3699,0.3698,0.3697,0,0,0,0,0,0,0,0,0,0,0,0,0,0.3631,0.3614,0.3684,0.3692,0.3694,0.3696,0.3695,0.3695,0.3699,0.37,0.37,0.3701,0.3699,0.3698,0.3697,0.368,0,0,0.3695,0.3695,0,0,0,0,0,0,0,0,0.363,0.3633,0.369,0.3692,0.3693,0.3701,0.367,0.3691,0.3699,0.3691,0.3701,0.3701,0.3701,0.37,0.3694,0.368,0.368,0.3695,0.3695,0.3695,0.3694,0,0,0,0,0,0,0,0.3629,0.3632,0.3683,0.3691,0.3693,0.3678,0.3681,0.3673,0.3688,0.3692,0.3694,0.3703,0.3701,0.3694,0.3694,0.368,0.3695,0.3695,0.3694,0.3694,0.3659,0.3658,0,0,0,0,0,0,0.364,0.3632,0.3683,0.3684,0.3669,0.3679,0.3683,0.3694,0.3688,0.369,0.3703,0.3703,0.3695,0.3695,0.3694,0.3695,0.3695,0.3694,0.3693,0.3659,0.3659,0.3658,0,0,0,0,0,0,0.3639,0.3645,0.3683,0.3662,0.3666,0.3681,0.3693,0.3694,0.3689,0.3698,0.3698,0.3698,0.3696,0.3695,0.3679,0.3694,0.3694,0.3693,0.366,0.3659,0.3658,0.3684,0,0,0,0,0,0,0.3636,0.3644,0.3639,0.3663,0.3668,0.3672,0.3693,0.3694,0.3696,0.3697,0.3693,0.3694,0.3696,0.368,0.3678,0.3693,0.3692,0.3661,0.366,0.3659,0.3684,0.3684,0.3684,0,0,0,0,0,0.3634,0.3625,0.3639,0.3645,0.3667,0.3672,0.3671,0.368,0.3695,0.368,0.3683,0.3694,0.3673,0.3678,0.3677,0.3692,0.3661,0.366,0.3659,0.3683,0.3684,0.3684,0,0,0,0,0,0,0.3601,0.3627,0.3641,0.3645,0.3655,0.3674,0.3664,0.3678,0.3667,0.3671,0.368,0.3679,0.368,0.3669,0.3675,0.3676,0.3672,0.367,0.3691,0.3691,0.3692,0.374,0.3692,0,0,0,0,0,0.3592,0.3588,0.3617,0.3619,0.3625,0.3645,0.3646,0.3656,0.3662,0.3659,0.3657,0.3659,0.3673,0.3667,0.3667,0.3655,0.3679,0.3664,0.3665,0.3665,0.3701,0.3751,0.3761,0.3654,0.3654,0.3654,0,0,0.3588,0.3596,0.3599,0.361,0.3621,0.3638,0.3645,0.3648,0.3668,0.3659,0.3663,0.366,0.367,0.367,0.3668,0.3662,0.3696,0.3664,0.3664,0.3701,0.3751,0.3762,0.3772,0.3654,0.3654,0.3654,0,0,0.3586,0.3579,0.3586,0.3594,0.3609,0.3616,0.362,0.3633,0.3639,0.3638,0.3655,0.3663,0.3648,0.3675,0.3688,0.3686,0.3702,0.367,0.3708,0.3754,0.3765,0.3775,0.3777,0.3787,0.3663,0.3663,0.3663,0,0.3587,0.3604,0.3586,0.3603,0.3618,0.3613,0.364,0.3642,0.3646,0.3656,0.3639,0.3663,0.3668,0.3714,0.372,0.3696,0.3705,0.3708,0.376,0.377,0.378,0.378,0.3791,0.3664,0.3664,0.3664,0.3664,0,0.3599,0.362,0.3622,0.3645,0.3642,0.3657,0.3671,0.3659,0.3659,0.3674,0.3696,0.3698,0.3717,0.3716,0.3726,0.3791,0.3767,0.3763,0.3769,0.3793,0.379,0.3801,0.3666,0.3666,0.3665,0.3665,0,0,0.3601,0.3633,0.3636,0.3659,0.3671,0.3669,0.3688,0.3707,0.3718,0.3718,0.3744,0.3785,0.3781,0.3798,0.38,0.3847,0.3911,0.3837,0.3839,0.3857,0.3985,0.3663,0.3643,0.3915,0.3918,0.3921,0.3942,0,0.3632,0.3684,0.3677,0.3713,0.3746,0.3732,0.374,0.3746,0.3743,0.3747,0.378,0.3797,0.3814,0.3813,0.3871,0.3894,0.3947,0.3904,0.3945,0.3947,0.3673,0.3648,0.3422,0.3395,0.3952,0.3954,0.3955,0,0.3646,0.3686,0.3748,0.3762,0.3767,0.3771,0.3765,0.377,0.378,0.378,0.3813,0.3819,0.3884,0.3888,0.3985,0.3951,0.3994,0.4017,0.4018,0.3728,0.3644,0.3467,0.3394,0.3297,0.3972,0.3971,0.397,0,0.3656,0.3713,0.3765,0.378,0.3804,0.3803,0.3787,0.3784,0.3769,0.38,0.3786,0.3861,0.3864,0.3958,0.3961,0.3999,0.4031,0.4083,0.3846,0.3823,0.3644,0.3597,0.3501,0.4199,0.4198,0.4198,0.4198,0,0.3688,0.3722,0.3774,0.3802,0.3815,0.3814,0.3797,0.3791,0.3775,0.3744,0.3802,0.3786,0.3888,0.3887,0.3956,0.3859,0.4022,0.385,0.3806,0.3631,0.3585,0.3502,0.3515,0.4199,0.4199,0.4199,0.4199,0,0.3698,0.3747,0.3789,0.3824,0.3825,0.3822,0.3771,0.3742,0.3745,0.3706,0.3711,0.373,0.3699,0.3729,0.3817,0.3776,0.3624,0.3715,0.3451,0.3372,0.3019,0.3041,0.2828,0.2773,0.3482,0.3474,0.3468,0,0.3719,0.3754,0.3785,0.3776,0.379,0.378,0.3745,0.3732,0.369,0.3651,0.362,0.3576,0.3515,0.3432,0.3327,0.3285,0.3328,0.3054,0.309,0.2934,0.2936,0.2898,0.2873,0.2885,0.2874,0.2866,0.2858,0,0.3747,0.3748,0.3767,0.375,0.3727,0.3693,0.3644,0.3615,0.3575,0.3527,0.3439,0.3391,0.3217,0.2975,0.2808,0.2804,0.2828,0.2861,0.2822,0.253,0.2375,0.2318,0.2925,0.2779,0.2787,0.2793,0.2797,0.28,0.3738,0.3729,0.3723,0.3682,0.3656,0.3586,0.3476,0.3435,0.3348,0.3164,0.3227,0.2996,0.2722,0.2423,0.2372,0.2048,0.2246,0.2007,0.2075,0.2073,0.1906,0.2256,0.1958,0.1961,0.1964,0.1967,0.1969,0,0.3697,0.3666,0.3634,0.3568,0.3468,0.3481,0.3368,0.3196,0.3032,0.2904,0.2757,0.2327,0.2018,0.1818,0.1446,0.1314,0.1381,0.1281,0.1297,0.1345,0.176,0.1614,0.1073,0.1073,0.1074,0.1074,0.1074,0.1074,0.3664,0.3596,0.3552,0.3384,0.3313,0.3077,0.2961,0.2755,0.2588,0.2188,0.1867,0.1715,0.1467,0.1105,0.085,0.0843,0.0883,0.069,0.0856,0.1247,0.1326,0.1401,0.1265,0.066,0.066,0.0361,0.0358,0.0356]},{"header":{"parameterUnit":"m.s-1","parameterCategory":2,"la1":30.2991,"la2":30.254,"lo1":-89.0895,"lo2":-89.0444,"dy":0.0017,"dx":0.0017,"nx":28,"ny":28,"refTime":"2024-08-14T21:00:00:Z","depth":"0","parameterNumber":3,"parameterNumberName":"V-component_of_CURRENTS"},"data":[0,0,0,0,0,0,0,0,0,0,0,0,0,0,0,0,0,0,0,0,0,0,0,0,0,0,0,0,0,0,0,0,0,0,0,0,0,0,0,0,0,0,0,0,0,0,0,0,0,0,0,0,0,0,0,0,0,0,-0.0346,-0.0347,0,-0.0454,-0.0456,-0.0457,-0.0509,-0.0509,-0.0509,-0.0508,-0.0575,-0.0577,-0.0579,0,0,0,0,0,0,0,0,0,0,0,0,0,-0.0233,-0.0235,-0.0346,-0.0347,-0.0348,-0.0454,-0.0456,-0.0458,-0.0509,-0.0509,-0.0509,-0.0508,-0.0575,-0.0577,-0.058,0,0,0,0,0,0,0,0,0,0,0,0,0,-0.0309,-0.0235,-0.0345,-0.0384,-0.0388,-0.0454,-0.0456,-0.0458,-0.0509,-0.0509,-0.0508,-0.0508,-0.0574,-0.0577,-0.058,-0.0609,0,0,-0.0589,-0.0591,0,0,0,0,0,0,0,0,-0.0304,-0.0313,-0.0377,-0.0381,-0.0386,-0.0465,-0.0441,-0.0505,-0.051,-0.0467,-0.0508,-0.0508,-0.0533,-0.0539,-0.0566,-0.0612,-0.0615,-0.059,-0.0592,-0.0593,-0.0594,0,0,0,0,0,0,0,-0.0299,-0.0309,-0.0392,-0.0378,-0.0384,-0.0413,-0.0423,-0.0454,-0.0503,-0.047,-0.0474,-0.0481,-0.0535,-0.0563,-0.0568,-0.0616,-0.059,-0.0592,-0.0594,-0.0596,-0.06,-0.0599,0,0,0,0,0,0,-0.0277,-0.0304,-0.0388,-0.0395,-0.034,-0.0415,-0.0426,-0.0443,-0.0504,-0.0512,-0.0481,-0.0483,-0.0558,-0.0564,-0.057,-0.0531,-0.0593,-0.0596,-0.0598,-0.0602,-0.06,-0.0598,0,0,0,0,0,0,-0.0275,-0.0284,-0.0384,-0.0349,-0.0363,-0.0417,-0.0435,-0.0445,-0.0466,-0.0512,-0.052,-0.049,-0.0558,-0.0566,-0.0579,-0.0536,-0.0597,-0.06,-0.0604,-0.0602,-0.0599,-0.0501,0,0,0,0,0,0,-0.0271,-0.0283,-0.0292,-0.0347,-0.0364,-0.041,-0.0436,-0.0447,-0.047,-0.0473,-0.0522,-0.0528,-0.0558,-0.0574,-0.0582,-0.0542,-0.0603,-0.0606,-0.0603,-0.06,-0.0506,-0.0495,-0.0486,0,0,0,0,0,-0.0267,-0.0282,-0.0292,-0.0302,-0.0373,-0.0409,-0.0421,-0.0459,-0.047,-0.0477,-0.0501,-0.0526,-0.0558,-0.0576,-0.0586,-0.0545,-0.0608,-0.0604,-0.06,-0.0511,-0.0497,-0.0486,0,0,0,0,0,0,-0.0259,-0.029,-0.0302,-0.0332,-0.0359,-0.0416,-0.0432,-0.0453,-0.0483,-0.0483,-0.0522,-0.053,-0.0519,-0.055,-0.0568,-0.0534,-0.058,-0.0578,-0.0508,-0.0496,-0.0486,-0.046,-0.0605,0,0,0,0,0,-0.0254,-0.0257,-0.0301,-0.032,-0.0334,-0.0379,-0.04,-0.0422,-0.0454,-0.0468,-0.0496,-0.0514,-0.0514,-0.0519,-0.0536,-0.0533,-0.0509,-0.0506,-0.0496,-0.0487,-0.047,-0.0384,-0.0364,-0.0585,-0.0585,-0.0585,0,0,-0.0253,-0.0271,-0.0275,-0.0315,-0.0343,-0.0351,-0.0391,-0.0416,-0.0412,-0.0469,-0.0471,-0.0486,-0.0505,-0.049,-0.0486,-0.0509,-0.0411,-0.0482,-0.0474,-0.0462,-0.0378,-0.0356,-0.0337,-0.0583,-0.0583,-0.0584,0,0,-0.0248,-0.0272,-0.027,-0.0284,-0.0312,-0.0334,-0.0334,-0.038,-0.0389,-0.0398,-0.0415,-0.0397,-0.0434,-0.0416,-0.0415,-0.0358,-0.036,-0.0366,-0.0295,-0.0211,-0.0192,-0.0174,-0.0111,-0.0089,-0.036,-0.036,-0.036,0,-0.0247,-0.0258,-0.0277,-0.0278,-0.0281,-0.0316,-0.0315,-0.0328,-0.0366,-0.0351,-0.0382,-0.0363,-0.0386,-0.0324,-0.0306,-0.0331,-0.0295,-0.0342,-0.0195,-0.0177,-0.0161,-0.01,-0.0077,-0.0355,-0.0356,-0.0356,-0.0357,0,-0.0238,-0.0245,-0.0247,-0.0245,-0.0245,-0.0257,-0.0263,-0.0258,-0.0269,-0.0272,-0.0227,-0.0247,-0.0225,-0.0224,-0.0256,-0.0147,-0.0162,-0.019,-0.0222,-0.0132,-0.0075,-0.0052,-0.0348,-0.0349,-0.0351,-0.0352,0,0,-0.0249,-0.0242,-0.0243,-0.0231,-0.0232,-0.0233,-0.0197,-0.0178,-0.0133,-0.0148,-0.008,-0.0076,-0.0074,-0.007,-0.0085,-0.0023,0.0113,-0.0058,-0.0056,0.0012,0.0296,0.0231,0.0249,0.0114,0.0119,0.0122,0.0292,0,-0.0243,-0.0239,-0.0223,-0.0198,-0.02,-0.018,-0.0136,-0.0105,-0.0082,-0.0023,-0.0002,0.0044,-0.0017,0.0009,0.0067,0.0102,0.0176,0.0069,0.0192,0.0196,0.0134,0.0274,0.0234,0.0378,0.0314,0.0318,0.0321,0,-0.0251,-0.0241,-0.0229,-0.0172,-0.0165,-0.0136,-0.0053,-0.0015,0.0074,0.01,0.0165,0.0177,0.0269,0.0201,0.0337,0.0272,0.0298,0.0319,0.0326,0.0247,0.0173,0.0276,0.0421,0.0397,0.0355,0.0352,0.035,0,-0.0274,-0.0245,-0.0233,-0.0222,-0.0161,-0.0119,-0.007,0.0019,0.0087,0.0192,0.0261,0.0346,0.0411,0.0469,0.0487,0.0435,0.0634,0.0569,0.0542,0.0537,0.0518,0.0503,0.0661,0.0691,0.0691,0.069,0.069,0,-0.0291,-0.0278,-0.0243,-0.0233,-0.0164,-0.0119,-0.0016,0.0048,0.0171,0.0287,0.0326,0.044,0.0484,0.058,0.0577,0.0639,0.0715,0.0598,0.0598,0.0548,0.0534,0.0517,0.0489,0.0696,0.0695,0.0694,0.0693,0,-0.0317,-0.0315,-0.0278,-0.0208,-0.018,-0.0122,0.0019,0.011,0.0208,0.037,0.0416,0.0556,0.0681,0.0708,0.082,0.0763,0.0804,0.0812,0.0733,0.0719,0.0622,0.0599,0.0763,0.0761,0.0828,0.0828,0.0828,0,-0.0333,-0.0326,-0.0253,-0.0202,-0.0165,-0.0076,0.0008,0.0116,0.0224,0.0448,0.0541,0.0699,0.0835,0.0954,0.0891,0.0907,0.0861,0.0837,0.072,0.0657,0.0633,0.0619,0.0605,0.0748,0.0747,0.0746,0.0746,0,-0.0305,-0.0285,-0.0233,-0.0147,-0.0069,0.0021,0.0141,0.0231,0.039,0.0536,0.0767,0.0898,0.0984,0.1,0.0954,0.0923,0.0802,0.0818,0.0809,0.0643,0.0591,0.0573,0.0576,0.0739,0.074,0.074,0.0741,0.0741,-0.0245,-0.02,-0.0124,-0.0033,0.0042,0.0148,0.0249,0.038,0.0563,0.0799,0.0896,0.1079,0.1046,0.0991,0.0944,0.0764,0.0786,0.0687,0.0688,0.0697,0.0634,0.0599,0.0706,0.0707,0.0707,0.0708,0.0708,0,-0.0117,-0.0068,0.0005,0.0122,0.0217,0.0224,0.0376,0.0479,0.0699,0.0868,0.1054,0.1097,0.1061,0.0959,0.0741,0.0649,0.0621,0.0608,0.0602,0.0609,0.0643,0.057,0.0583,0.0584,0.0584,0.0584,0.0584,0.0584,-0.0017,0.0081,0.0103,0.0277,0.0344,0.047,0.0556,0.0676,0.0797,0.0973,0.1039,0.1086,0.1007,0.08,0.063,0.0585,0.0569,0.0536,0.0563,0.0572,0.058,0.0587,0.0514,0.0516,0.0516,0.0519,0.0519,0.0519]}],[{"header":{"parameterUnit":"m.s-1","parameterCategory":2,"la1":30.2991,"la2":30.254,"lo1":-89.0895,"lo2":-89.0444,"dy":0.0017,"dx":0.0017,"nx":28,"ny":28,"refTime":"2024-08-14T21:00:00:Z","depth":"2","parameterNumber":2,"parameterNumberName":"U-component_of_CURRENTS"},"data":[0,0,0,0,0,0,0,0,0,0,0,0,0,0,0,0,0,0,0,0,0,0,0,0,0,0,0,0,0,0,0,0,0,0,0,0,0,0,0,0,0,0,0,0,0,0,0,0,0,0,0,0,0,0,0,0,0,0,0.1629,0.1629,0,0.1596,0.1597,0.1597,0.1623,0.1624,0.1624,0.1625,0.1692,0.1693,0.1695,0,0,0,0,0,0,0,0,0,0,0,0,0,0.1603,0.1604,0.163,0.1628,0.1627,0.1596,0.1597,0.1597,0.1623,0.1624,0.1624,0.1625,0.1692,0.1693,0.1695,0,0,0,0,0,0,0,0,0,0,0,0,0,0.1604,0.1605,0.163,0.1631,0.1631,0.1596,0.1597,0.1597,0.1623,0.1624,0.1625,0.1625,0.1691,0.1693,0.1695,0.1694,0,0,0.1701,0.1702,0,0,0,0,0,0,0,0,0.1604,0.1606,0.1632,0.1631,0.163,0.1608,0.1611,0.1632,0.1623,0.1634,0.1625,0.1626,0.1668,0.1672,0.1673,0.1698,0.17,0.1702,0.1703,0.1704,0.1704,0,0,0,0,0,0,0,0.1604,0.1607,0.1624,0.1631,0.1629,0.1594,0.1597,0.1615,0.1655,0.1633,0.1633,0.1617,0.1669,0.1671,0.1675,0.1701,0.1702,0.1703,0.1705,0.1705,0.1876,0.1879,0,0,0,0,0,0,0.1599,0.1607,0.1625,0.1622,0.161,0.1594,0.1598,0.1621,0.1653,0.1655,0.1617,0.1618,0.1667,0.1673,0.1678,0.1814,0.1704,0.1706,0.1707,0.1872,0.1876,0.188,0,0,0,0,0,0,0.1599,0.1602,0.1626,0.1605,0.1605,0.1594,0.1619,0.1619,0.1645,0.1638,0.1644,0.1644,0.1668,0.1675,0.1718,0.1812,0.1707,0.1708,0.1868,0.1874,0.1878,0.2,0,0,0,0,0,0,0.1599,0.1604,0.1637,0.1607,0.1606,0.1631,0.1618,0.1618,0.1629,0.1632,0.1663,0.1668,0.1669,0.1715,0.172,0.1813,0.171,0.1864,0.1871,0.1877,0.1992,0.2008,0.2023,0,0,0,0,0,0.1599,0.1624,0.164,0.1642,0.1648,0.1631,0.163,0.1626,0.163,0.1652,0.167,0.1669,0.1759,0.1717,0.1723,0.1819,0.1861,0.1869,0.1876,0.1985,0.2005,0.2022,0,0,0,0,0,0,0.164,0.1627,0.1644,0.1672,0.1667,0.1633,0.1649,0.1641,0.167,0.1691,0.1685,0.1692,0.1782,0.177,0.1724,0.1888,0.1821,0.183,0.1903,0.1921,0.1937,0.1967,0.1712,0,0,0,0,0,0.1662,0.1684,0.1665,0.1696,0.1697,0.1683,0.1681,0.1682,0.1685,0.17,0.1721,0.1759,0.1813,0.1837,0.1879,0.194,0.1913,0.2014,0.203,0.2043,0.2073,0.2116,0.2138,0.1904,0.1904,0.1904,0,0,0.1687,0.1683,0.1699,0.1706,0.1709,0.1721,0.1688,0.1702,0.1733,0.1704,0.1779,0.1815,0.1842,0.1933,0.1973,0.1934,0.2084,0.2052,0.2063,0.2087,0.2126,0.2149,0.2169,0.1909,0.1908,0.1907,0,0,0.1722,0.1751,0.1774,0.1774,0.1776,0.1769,0.1778,0.1777,0.1807,0.1864,0.1875,0.1968,0.2013,0.2076,0.2105,0.2228,0.217,0.2238,0.2337,0.2378,0.2397,0.2414,0.2352,0.2362,0.2239,0.224,0.224,0,0.1763,0.1787,0.1779,0.1795,0.1805,0.1796,0.1826,0.1847,0.1868,0.191,0.1914,0.2056,0.2102,0.2214,0.2283,0.2273,0.2228,0.2259,0.2397,0.2414,0.2429,0.2362,0.2372,0.2246,0.2246,0.2245,0.2244,0,0.1798,0.183,0.1842,0.1873,0.1889,0.1911,0.1927,0.1977,0.202,0.2045,0.2177,0.224,0.2319,0.2374,0.2377,0.2519,0.2425,0.2414,0.2346,0.246,0.238,0.2389,0.2256,0.2254,0.2252,0.225,0,0,0.1841,0.1868,0.1875,0.1902,0.1934,0.1945,0.2025,0.2084,0.2135,0.2224,0.23,0.2475,0.2502,0.254,0.2563,0.2637,0.2722,0.2581,0.258,0.251,0.2721,0.2516,0.2502,0.2715,0.2718,0.2721,0.2599,0,0.1878,0.1927,0.1933,0.1993,0.2017,0.2051,0.211,0.2175,0.2239,0.2307,0.242,0.2508,0.2555,0.2606,0.2694,0.2706,0.2759,0.2751,0.2631,0.2626,0.2424,0.2514,0.2347,0.2214,0.2607,0.2608,0.2609,0,0.1889,0.1925,0.1998,0.2049,0.2066,0.211,0.221,0.226,0.2355,0.2408,0.2518,0.2556,0.2689,0.2711,0.2801,0.2773,0.2784,0.2796,0.279,0.2573,0.244,0.2177,0.2213,0.2622,0.2621,0.262,0.2619,0,0.1896,0.1953,0.2022,0.2042,0.2112,0.2172,0.2216,0.2309,0.2363,0.2466,0.2504,0.2622,0.268,0.2738,0.2771,0.2784,0.2815,0.2814,0.2632,0.2611,0.2438,0.2396,0.2914,0.2914,0.2915,0.2915,0.2915,0,0.1911,0.1954,0.2032,0.207,0.2149,0.219,0.2284,0.2341,0.2419,0.2444,0.2547,0.2571,0.2706,0.2719,0.2747,0.2671,0.2781,0.2664,0.2596,0.2465,0.2429,0.2774,0.276,0.291,0.2911,0.2912,0.2913,0,0.191,0.1961,0.2031,0.2126,0.2154,0.2218,0.2309,0.2343,0.2423,0.2448,0.2479,0.2557,0.2539,0.2594,0.2654,0.2609,0.2582,0.254,0.2319,0.2229,0.2345,0.2339,0.2308,0.23,0.2294,0.2289,0.2284,0,0.1923,0.1957,0.2069,0.2116,0.2169,0.2254,0.2278,0.2352,0.2358,0.2398,0.2371,0.2406,0.2354,0.2309,0.2279,0.2214,0.2387,0.2015,0.2063,0.236,0.2298,0.2302,0.2304,0.1853,0.1846,0.1839,0.1834,0,0.1959,0.2004,0.2085,0.2143,0.219,0.2203,0.2231,0.2231,0.2248,0.2254,0.2176,0.2147,0.2077,0.193,0.1868,0.1832,0.2004,0.1877,0.2284,0.2022,0.192,0.1862,0.1882,0.1778,0.1784,0.1788,0.1791,0.1793,0.2013,0.2042,0.2125,0.2153,0.2207,0.2123,0.2069,0.2048,0.2008,0.1907,0.1926,0.1791,0.1769,0.1561,0.1476,0.1432,0.1594,0.1555,0.1581,0.1612,0.1571,0.1463,0.1222,0.1224,0.1226,0.1228,0.1229,0,0.2007,0.2041,0.2098,0.2126,0.2081,0.2096,0.2002,0.1868,0.1735,0.167,0.1572,0.1333,0.1209,0.1211,0.1046,0.0998,0.1079,0.0964,0.1088,0.1141,0.1189,0.1135,0.0666,0.0664,0.0663,0.0662,0,0,0.2032,0.2035,0.1995,0.1944,0.1942,0.1799,0.1672,0.151,0.1422,0.1235,0.1144,0.1143,0.1157,0.0904,0.0849,0.0735,0.0951,0.07,0.115,0.1351,0.1398,0.1515,0.1486,0,0,0,0,0]},{"header":{"parameterUnit":"m.s-1","parameterCategory":2,"la1":30.2991,"la2":30.254,"lo1":-89.0895,"lo2":-89.0444,"dy":0.0017,"dx":0.0017,"nx":28,"ny":28,"refTime":"2024-08-14T21:00:00:Z","depth":"2","parameterNumber":3,"parameterNumberName":"V-component_of_CURRENTS"},"data":[0,0,0,0,0,0,0,0,0,0,0,0,0,0,0,0,0,0,0,0,0,0,0,0,0,0,0,0,0,0,0,0,0,0,0,0,0,0,0,0,0,0,0,0,0,0,0,0,0,0,0,0,0,0,0,0,0,0,0.0247,0.0248,0,0.0265,0.0265,0.0265,0.0219,0.0218,0.0217,0.0217,0.0188,0.0188,0.0188,0,0,0,0,0,0,0,0,0,0,0,0,0,0.0203,0.0204,0.0247,0.0248,0.0249,0.0265,0.0265,0.0265,0.022,0.0218,0.0217,0.0216,0.0188,0.0188,0.0188,0,0,0,0,0,0,0,0,0,0,0,0,0,0.0217,0.0204,0.0247,0.0232,0.0231,0.0266,0.0265,0.0265,0.022,0.0218,0.0217,0.0216,0.0188,0.0188,0.0188,0.0217,0,0,0.0189,0.0189,0,0,0,0,0,0,0,0,0.0216,0.0218,0.0234,0.0233,0.0233,0.0244,0.024,0.0248,0.022,0.0218,0.0217,0.0215,0.0207,0.0205,0.0205,0.0216,0.0214,0.0189,0.0189,0.0189,0.0189,0,0,0,0,0,0,0,0.0215,0.0217,0.0249,0.0235,0.0234,0.0235,0.0235,0.0241,0.0215,0.0218,0.0217,0.0228,0.0205,0.0205,0.0204,0.0214,0.0189,0.0189,0.0189,0.0189,0.0248,0.0249,0,0,0,0,0,0,0.0224,0.0216,0.0248,0.025,0.0227,0.0238,0.0237,0.0237,0.0216,0.0213,0.0229,0.0226,0.0205,0.0203,0.0202,0.0236,0.0189,0.0189,0.0189,0.0246,0.0248,0.025,0,0,0,0,0,0,0.0223,0.0226,0.0248,0.0238,0.0242,0.024,0.0241,0.0238,0.0227,0.0226,0.022,0.022,0.0204,0.0202,0.0211,0.0234,0.0189,0.0189,0.0245,0.0247,0.0249,0.0303,0,0,0,0,0,0,0.0221,0.0226,0.0219,0.0239,0.0243,0.0266,0.0243,0.024,0.024,0.0235,0.0217,0.0213,0.0203,0.0211,0.0211,0.0234,0.0189,0.0243,0.0246,0.0248,0.0299,0.0307,0.0313,0,0,0,0,0,0.022,0.0223,0.0218,0.0222,0.0237,0.0267,0.0268,0.0259,0.0241,0.0242,0.0234,0.0213,0.0228,0.0212,0.0212,0.0235,0.0241,0.0245,0.0248,0.0296,0.0305,0.0313,0,0,0,0,0,0,0.0193,0.022,0.0215,0.0222,0.0242,0.0261,0.0262,0.026,0.0254,0.0243,0.0231,0.0228,0.0245,0.0236,0.0219,0.0262,0.0233,0.0236,0.0269,0.0278,0.0285,0.0342,0.0189,0,0,0,0,0,0.0189,0.0199,0.0225,0.023,0.0239,0.0249,0.0256,0.0255,0.0262,0.0256,0.0248,0.0246,0.0263,0.0264,0.027,0.0293,0.0287,0.031,0.0317,0.0322,0.0371,0.0394,0.0408,0.0261,0.0261,0.0261,0,0,0.0182,0.0198,0.0201,0.0226,0.0235,0.0271,0.0247,0.0262,0.0298,0.0257,0.0281,0.0267,0.0275,0.0301,0.0309,0.0293,0.0347,0.0327,0.0332,0.0378,0.0399,0.0414,0.0427,0.0263,0.0262,0.0262,0,0,0.0193,0.0185,0.0205,0.0229,0.0256,0.0273,0.0279,0.0296,0.0303,0.0332,0.0317,0.0334,0.0333,0.0363,0.0376,0.0432,0.0383,0.0406,0.0489,0.051,0.0523,0.0535,0.0483,0.0489,0.041,0.0411,0.0411,0,0.0184,0.0218,0.0215,0.0251,0.0287,0.0279,0.0327,0.0342,0.036,0.0398,0.0345,0.0401,0.0384,0.047,0.0476,0.0452,0.0421,0.0451,0.052,0.0532,0.0543,0.0487,0.0494,0.0414,0.0413,0.0413,0.0413,0,0.0221,0.0253,0.0269,0.0319,0.0349,0.0388,0.0424,0.0448,0.045,0.0479,0.054,0.0521,0.0565,0.0547,0.0525,0.0602,0.0535,0.0522,0.0499,0.0561,0.0497,0.0503,0.0418,0.0417,0.0416,0.0415,0,0,0.0212,0.0284,0.0292,0.0346,0.0396,0.0438,0.0502,0.0586,0.0653,0.0649,0.0736,0.0754,0.0736,0.0753,0.0718,0.0732,0.0738,0.0654,0.0654,0.0603,0.0721,0.0621,0.0617,0.072,0.0723,0.0725,0.0622,0,0.0253,0.0347,0.0368,0.0472,0.0537,0.0567,0.0637,0.0706,0.0747,0.0816,0.0832,0.0874,0.0816,0.0812,0.0831,0.0767,0.0767,0.0765,0.0672,0.0669,0.0575,0.0628,0.0635,0.0542,0.0627,0.0628,0.0629,0,0.0301,0.0368,0.0473,0.0594,0.0621,0.0668,0.0804,0.0861,0.0959,0.0983,0.1042,0.1032,0.1065,0.0985,0.0955,0.0942,0.0854,0.0794,0.0788,0.0701,0.0585,0.0508,0.0549,0.0638,0.0638,0.0637,0.0636,0,0.0347,0.0453,0.0548,0.0586,0.0702,0.0757,0.0809,0.0916,0.099,0.1077,0.1114,0.1165,0.1144,0.1104,0.0966,0.0956,0.0894,0.0864,0.07,0.0687,0.0688,0.0672,0.0868,0.0868,0.0868,0.0868,0.0869,0,0.0425,0.0503,0.0571,0.0635,0.0748,0.0799,0.0921,0.0984,0.1078,0.1165,0.1183,0.1223,0.117,0.1119,0.1013,0.0859,0.0928,0.0741,0.0684,0.0696,0.0682,0.0779,0.077,0.0864,0.0865,0.0866,0.0867,0,0.0499,0.0532,0.0653,0.0757,0.0779,0.0863,0.0962,0.1054,0.1112,0.1216,0.1233,0.1258,0.1169,0.1089,0.098,0.0883,0.0768,0.0692,0.0666,0.061,0.053,0.0525,0.0528,0.0525,0.0522,0.0519,0.0517,0,0.0559,0.0625,0.073,0.0771,0.0815,0.0912,0.0976,0.1064,0.1152,0.1225,0.1273,0.122,0.1175,0.097,0.0821,0.0638,0.0655,0.0509,0.0531,0.0567,0.0509,0.0509,0.0509,0.0516,0.0514,0.0512,0.0511,0,0.0693,0.0707,0.079,0.0836,0.0898,0.0999,0.1082,0.1144,0.1233,0.1289,0.1291,0.1244,0.1062,0.0882,0.0646,0.0536,0.0551,0.0465,0.0554,0.0594,0.0545,0.0491,0.0494,0.0496,0.0497,0.0498,0.0499,0.05,0.076,0.081,0.0847,0.09,0.0967,0.1029,0.107,0.1146,0.1221,0.1239,0.1244,0.1132,0.1014,0.0662,0.0522,0.0376,0.0393,0.0346,0.0356,0.0367,0.0379,0.0327,0.0234,0.0234,0.0234,0.0234,0.0234,0,0.0806,0.0824,0.0888,0.0919,0.0973,0.1005,0.1098,0.1099,0.1114,0.115,0.1107,0.0913,0.0759,0.0616,0.0387,0.0259,0.03,0.0216,0.0321,0.0335,0.0347,0.0364,0.0212,0.0211,0.0211,0.0211,0,0,0.0812,0.0839,0.0848,0.089,0.0913,0.0923,0.0951,0.0947,0.0962,0.0904,0.0857,0.0846,0.0727,0.0561,0.0433,0.0314,0.0345,0.0283,0.031,0.0462,0.0476,0.0426,0.0465,0,0,0,0,0]}],[{"header":{"parameterUnit":"m.s-1","parameterCategory":2,"la1":30.2991,"la2":30.254,"lo1":-89.0895,"lo2":-89.0444,"dy":0.0017,"dx":0.0017,"nx":28,"ny":28,"refTime":"2024-08-14T21:00:00:Z","depth":"4","parameterNumber":2,"parameterNumberName":"U-component_of_CURRENTS"},"data":[0,0,0,0,0,0,0,0,0,0,0,0,0,0,0,0,0,0,0,0,0,0,0,0,0,0,0,0,0,0,0,0,0,0,0,0,0,0,0,0,0,0,0,0,0,0,0,0,0,0,0,0,0,0,0,0,0,0,0.0146,0.0146,0,0.0129,0.0129,0.0129,0.0115,0.0115,0.0115,0.0115,0.0141,0.0142,0.0142,0,0,0,0,0,0,0,0,0,0,0,0,0,0.0166,0.0166,0.0146,0.0146,0.0146,0.013,0.0129,0.0129,0.0115,0.0115,0.0115,0.0115,0.0141,0.0142,0.0143,0,0,0,0,0,0,0,0,0,0,0,0,0,0.0153,0.0166,0.0147,0.0138,0.0137,0.013,0.0129,0.0129,0.0115,0.0115,0.0115,0.0115,0.014,0.0142,0.0143,0.0151,0,0,0.0146,0.0147,0,0,0,0,0,0,0,0,0.0154,0.0152,0.0139,0.0139,0.0138,0.0125,0.0146,0.0139,0.0115,0.0122,0.0115,0.0115,0.0141,0.0142,0.0136,0.0152,0.0153,0.0146,0.0147,0.0147,0.0148,0,0,0,0,0,0,0,0.0155,0.0153,0.0139,0.0139,0.0138,0.0135,0.0133,0.0144,0.0132,0.0122,0.0121,0.0121,0.014,0.0135,0.0137,0.0154,0.0146,0.0147,0.0148,0.0148,0.0266,0.0268,0,0,0,0,0,0,0.0159,0.0154,0.0139,0.0138,0.0147,0.0135,0.0132,0.0128,0.0131,0.0131,0.0121,0.012,0.0133,0.0136,0.0138,0.0198,0.0147,0.0148,0.0149,0.0263,0.0266,0.0269,0,0,0,0,0,0,0.016,0.0158,0.014,0.0147,0.0144,0.0135,0.013,0.0128,0.013,0.013,0.0131,0.0126,0.0133,0.0136,0.0179,0.0197,0.0149,0.015,0.026,0.0264,0.0268,0.0286,0,0,0,0,0,0,0.016,0.0158,0.016,0.0147,0.0144,0.014,0.013,0.0128,0.013,0.013,0.0135,0.0137,0.0134,0.0177,0.018,0.0198,0.0151,0.0257,0.0262,0.0266,0.0282,0.029,0.0296,0,0,0,0,0,0.0161,0.0153,0.016,0.0159,0.0146,0.014,0.0139,0.0131,0.0131,0.0133,0.0157,0.0137,0.0208,0.018,0.0182,0.0201,0.0255,0.0261,0.0266,0.0279,0.0288,0.0296,0,0,0,0,0,0,0.0163,0.0151,0.0158,0.0149,0.0152,0.0139,0.0138,0.0138,0.0155,0.0163,0.0163,0.0168,0.0214,0.0215,0.0184,0.0255,0.023,0.0237,0.0239,0.0248,0.0255,0.0298,0.0152,0,0,0,0,0,0.0167,0.0156,0.0156,0.0151,0.0155,0.0152,0.0151,0.0152,0.0162,0.0167,0.0185,0.0211,0.0238,0.0248,0.0275,0.0305,0.032,0.0325,0.0332,0.0338,0.0379,0.0408,0.0421,0.0287,0.0287,0.0287,0,0,0.0166,0.0159,0.0154,0.0152,0.0153,0.0166,0.0151,0.0154,0.0182,0.0171,0.0224,0.0238,0.0256,0.0298,0.0318,0.0299,0.0382,0.0345,0.0349,0.0388,0.0415,0.0428,0.0439,0.0291,0.029,0.029,0,0,0.0158,0.0158,0.0151,0.0156,0.0164,0.0175,0.0181,0.0193,0.0215,0.026,0.027,0.0316,0.0339,0.0372,0.0384,0.0453,0.0423,0.0441,0.05,0.0526,0.0537,0.0547,0.0565,0.0576,0.0437,0.0437,0.0437,0,0.0168,0.0157,0.0151,0.0153,0.0168,0.0184,0.0202,0.0227,0.026,0.0292,0.0287,0.0369,0.0387,0.0444,0.0478,0.0469,0.0468,0.0453,0.0533,0.0543,0.0553,0.0569,0.0581,0.0438,0.0438,0.0438,0.0438,0,0.0154,0.0158,0.0156,0.0174,0.0192,0.0205,0.0246,0.0296,0.0331,0.035,0.0426,0.046,0.0506,0.0515,0.0521,0.0596,0.0567,0.0536,0.0501,0.0567,0.058,0.0592,0.0441,0.044,0.044,0.0439,0,0,0.016,0.015,0.0156,0.0176,0.0207,0.0228,0.0298,0.0362,0.0427,0.0459,0.0528,0.0593,0.06,0.0623,0.0626,0.0669,0.0736,0.0637,0.0637,0.064,0.0781,0.0691,0.0696,0.0693,0.0696,0.0698,0.0755,0,0.0166,0.0165,0.0173,0.0218,0.023,0.0287,0.0354,0.0417,0.0482,0.0559,0.0593,0.0669,0.0635,0.0681,0.0702,0.0754,0.0773,0.0725,0.0735,0.0737,0.0635,0.0709,0.0707,0.0765,0.0767,0.0769,0.0771,0,0.0165,0.0164,0.0185,0.025,0.0268,0.0315,0.0449,0.0514,0.0613,0.0666,0.0716,0.0741,0.0833,0.0791,0.0867,0.0826,0.0815,0.0834,0.0834,0.0764,0.0671,0.0694,0.0793,0.0791,0.0789,0.0788,0.0787,0,0.0164,0.0195,0.0216,0.0227,0.0293,0.0357,0.0429,0.0542,0.0616,0.0755,0.0808,0.0873,0.0924,0.0944,0.0956,0.0926,0.1016,0.0967,0.0865,0.0857,0.0907,0.0896,0.1007,0.1007,0.1007,0.1006,0.1006,0,0.0165,0.0189,0.0222,0.0229,0.0312,0.0367,0.0485,0.0586,0.0699,0.0778,0.0853,0.0911,0.0967,0.0995,0.0993,0.0967,0.1027,0.0914,0.088,0.0911,0.0901,0.0914,0.0902,0.1008,0.1008,0.1008,0.1007,0,0.0155,0.0162,0.0194,0.0264,0.03,0.0369,0.0505,0.0588,0.0712,0.0822,0.0875,0.0961,0.1027,0.1041,0.1097,0.1009,0.1022,0.0976,0.1027,0.0988,0.0837,0.0827,0.091,0.0908,0.0906,0.0904,0.0902,0,0.0136,0.0144,0.0211,0.0244,0.0281,0.0381,0.0452,0.059,0.0671,0.0834,0.0872,0.0972,0.101,0.1013,0.103,0.1027,0.0978,0.0964,0.0908,0.0877,0.0835,0.0827,0.082,0.0899,0.0899,0.0898,0.0898,0,0.0116,0.0145,0.0169,0.0232,0.0303,0.0379,0.0488,0.0534,0.0691,0.079,0.088,0.0916,0.0951,0.0973,0.0963,0.0946,0.0989,0.0943,0.0946,0.0893,0.0864,0.0823,0.0818,0.0891,0.0892,0.0892,0.0893,0,0.0116,0.0132,0.0171,0.0241,0.0309,0.0372,0.0423,0.0516,0.0604,0.0777,0.0792,0.0883,0.0956,0.0927,0.0926,0.0911,0.0882,0.0827,0.0836,0.0844,0.0788,0.074,0.0731,0,0,0,0,0,0.0129,0.0154,0.0188,0.0253,0.0309,0.0364,0.0453,0.0499,0.0622,0.0673,0.0741,0.0788,0.0811,0.0836,0.0805,0.0857,0.0862,0.081,0.0798,0.0852,0.086,0.0796,0,0,0,0,0,0,0.0146,0.0173,0.0183,0.0248,0.0296,0.0365,0.0418,0.0484,0.0516,0.0633,0.0652,0.0731,0.076,0.0841,0.0796,0.08,0.0767,0.0858,0.0855,0.0847,0.0855,0.0861,0.0798,0,0,0,0,0]},{"header":{"parameterUnit":"m.s-1","parameterCategory":2,"la1":30.2991,"la2":30.254,"lo1":-89.0895,"lo2":-89.0444,"dy":0.0017,"dx":0.0017,"nx":28,"ny":28,"refTime":"2024-08-14T21:00:00:Z","depth":"4","parameterNumber":3,"parameterNumberName":"V-component_of_CURRENTS"},"data":[0,0,0,0,0,0,0,0,0,0,0,0,0,0,0,0,0,0,0,0,0,0,0,0,0,0,0,0,0,0,0,0,0,0,0,0,0,0,0,0,0,0,0,0,0,0,0,0,0,0,0,0,0,0,0,0,0,0,0.0376,0.0377,0,0.0386,0.0386,0.0386,0.0392,0.0393,0.0393,0.0393,0.0384,0.0384,0.0383,0,0,0,0,0,0,0,0,0,0,0,0,0,0.0324,0.0325,0.0376,0.0377,0.0377,0.0386,0.0386,0.0386,0.0392,0.0393,0.0393,0.0393,0.0384,0.0384,0.0383,0,0,0,0,0,0,0,0,0,0,0,0,0,0.034,0.0325,0.0376,0.0382,0.0383,0.0386,0.0386,0.0386,0.0392,0.0393,0.0393,0.0393,0.0384,0.0384,0.0383,0.0374,0,0,0.0381,0.0381,0,0,0,0,0,0,0,0,0.0339,0.0342,0.0381,0.0382,0.0383,0.0389,0.0364,0.0382,0.0392,0.0387,0.0393,0.0393,0.0385,0.0384,0.0384,0.0374,0.0373,0.0381,0.0381,0.0381,0.038,0,0,0,0,0,0,0,0.0338,0.0341,0.0379,0.0381,0.0382,0.0371,0.0374,0.0367,0.0383,0.0388,0.0389,0.0392,0.0385,0.0384,0.0383,0.0373,0.0381,0.0381,0.038,0.038,0.0341,0.0341,0,0,0,0,0,0,0.0342,0.0341,0.0379,0.0379,0.0363,0.0372,0.0375,0.0386,0.0384,0.0384,0.0391,0.0392,0.0385,0.0384,0.0383,0.0372,0.0381,0.038,0.038,0.0342,0.0341,0.034,0,0,0,0,0,0,0.0341,0.0345,0.0378,0.0361,0.0364,0.0373,0.0385,0.0386,0.0397,0.0387,0.0387,0.0403,0.0385,0.0384,0.0378,0.0372,0.038,0.0379,0.0343,0.0342,0.0341,0.0351,0,0,0,0,0,0,0.0339,0.0345,0.0357,0.0361,0.0365,0.0389,0.0385,0.0386,0.0398,0.0399,0.0396,0.0395,0.0385,0.0379,0.0377,0.0371,0.0379,0.0343,0.0342,0.0341,0.0351,0.035,0.0349,0,0,0,0,0,0.0338,0.0351,0.0357,0.0362,0.038,0.0389,0.039,0.0395,0.0399,0.0406,0.0396,0.0396,0.0369,0.0378,0.0376,0.037,0.0344,0.0343,0.0341,0.0352,0.0351,0.0349,0,0,0,0,0,0,0.0332,0.0353,0.036,0.0379,0.0388,0.0391,0.0398,0.0403,0.0402,0.0404,0.0393,0.0391,0.038,0.0373,0.0383,0.0353,0.0354,0.0352,0.0363,0.0362,0.0361,0.0373,0.0378,0,0,0,0,0,0.0337,0.0357,0.0368,0.0386,0.039,0.0397,0.0402,0.0408,0.0407,0.0408,0.0405,0.0391,0.0371,0.0366,0.0353,0.0343,0.0318,0.0334,0.0333,0.0333,0.0339,0.0267,0.026,0.0335,0.0335,0.0335,0,0,0.034,0.0355,0.0366,0.0386,0.0393,0.0397,0.0401,0.0415,0.0419,0.0406,0.041,0.0393,0.0367,0.0351,0.0345,0.0346,0.0302,0.0331,0.033,0.0338,0.0265,0.0257,0.0251,0.0334,0.0334,0.0335,0,0,0.0345,0.0368,0.038,0.0389,0.0405,0.0407,0.0415,0.0424,0.0431,0.0433,0.0413,0.0392,0.038,0.0351,0.0335,0.0321,0.0299,0.0316,0.0323,0.0252,0.0245,0.0239,0.0217,0.0208,0.0315,0.0315,0.0315,0,0.0347,0.0369,0.0384,0.0391,0.0401,0.0413,0.0421,0.0425,0.0431,0.0425,0.0438,0.0384,0.0377,0.0326,0.0329,0.0319,0.029,0.0332,0.0251,0.0244,0.0237,0.0215,0.0206,0.0316,0.0316,0.0316,0.0316,0,0.0351,0.0374,0.0382,0.0398,0.0405,0.0421,0.0426,0.0438,0.0449,0.0435,0.0407,0.0386,0.0347,0.0342,0.0341,0.0284,0.0284,0.0257,0.0256,0.023,0.0209,0.0199,0.0316,0.0316,0.0316,0.0316,0,0,0.0348,0.038,0.0385,0.0402,0.0417,0.0425,0.0433,0.0433,0.0436,0.042,0.0396,0.0366,0.0342,0.0322,0.0301,0.0261,0.0209,0.0252,0.0248,0.0235,0.0081,0.0111,0.0103,0.0159,0.0157,0.0155,0.0092,0,0.0353,0.0375,0.0388,0.0411,0.0425,0.0441,0.0447,0.0442,0.0444,0.0422,0.0369,0.0352,0.0333,0.0334,0.0269,0.0236,0.0179,0.0231,0.0104,0.0101,0.0133,0.0091,0.0148,0.0085,0.0083,0.0081,0.008,0,0.0356,0.0373,0.0399,0.0435,0.0441,0.0455,0.0477,0.0488,0.0448,0.045,0.0389,0.0351,0.0293,0.0284,0.0167,0.0199,0.0138,0.0105,0.01,0.0119,0.0111,0.0109,0.0061,0.0063,0.0064,0.0065,0.0066,0,0.0353,0.0388,0.0416,0.0426,0.0455,0.0477,0.0497,0.049,0.0501,0.0475,0.0465,0.0363,0.0332,0.0229,0.016,0.0162,0.0031,0.0013,-0.003,-0.0026,-0.0037,-0.003,-0.0104,-0.0104,-0.0104,-0.0103,-0.0103,0,0.036,0.0384,0.0426,0.0439,0.0476,0.0494,0.0525,0.0545,0.0536,0.0528,0.0476,0.044,0.0316,0.0221,0.0145,0.0038,0.0001,-0.003,-0.0053,-0.0027,-0.0019,-0.0043,-0.0035,-0.0106,-0.0105,-0.0105,-0.0104,0,0.0354,0.0384,0.042,0.0461,0.0481,0.0512,0.0559,0.0573,0.0589,0.0577,0.0576,0.0485,0.0396,0.0269,0.0124,0.0039,-0.0059,-0.0101,-0.003,-0.0048,-0.0062,-0.0053,-0.0146,-0.0146,-0.0146,-0.0146,-0.0146,0,0.0348,0.0369,0.0432,0.0459,0.0488,0.0534,0.0563,0.0602,0.0616,0.0604,0.0585,0.0504,0.043,0.0242,0.012,-0.0032,-0.0066,-0.0116,-0.0119,-0.0059,-0.0073,-0.0064,-0.0056,-0.0145,-0.0145,-0.0145,-0.0145,0,0.0334,0.037,0.0397,0.0461,0.0509,0.0547,0.0595,0.0603,0.064,0.0643,0.0598,0.0509,0.0386,0.0245,0.0128,0.001,-0.0072,-0.0114,-0.0116,-0.0119,-0.0059,-0.0071,-0.0063,-0.0144,-0.0144,-0.0144,-0.0145,0,0.0329,0.0349,0.0404,0.0457,0.0515,0.0555,0.0574,0.0593,0.0614,0.0613,0.0591,0.0487,0.0423,0.0265,0.0155,0.0056,0.0023,-0.0017,-0.0024,-0.0027,0.0028,0.0123,0.0067,0,0,0,0,0,0.0324,0.0354,0.0395,0.0459,0.051,0.0549,0.0594,0.0606,0.0632,0.061,0.061,0.0514,0.0362,0.0282,0.0187,0.0145,-0.0003,0.0029,-0.0056,-0.014,-0.0141,-0.0094,0,0,0,0,0,0,0.0328,0.0371,0.0393,0.0452,0.0487,0.0548,0.0576,0.0586,0.0574,0.0585,0.05,0.0489,0.0332,0.0418,0.0184,0.0154,0.0087,-0.0035,-0.0037,-0.0139,-0.014,-0.0141,-0.0093,0,0,0,0,0]}]]